Preview of NWS' New Version of Forecast
This preview is not operational and should not be used for support decisions.

Regional Weather Roundup (RWR)

Issued by Gray - Portland, ME (GYX)

                            
000
ASUS41 KGYX 221710
RWRGYX
WEATHER ROUNDUP FOR MAINE AND NEW HAMPSHIRE
NATIONAL WEATHER SERVICE GRAY ME
100 PM EDT THU AUG 22 2019

MEZ002-005-006-010-012-015-018-020-021-024-026-027-029-221800-
MAINE
  
CITY           SKY/WX    TMP DP  RH WIND       PRES   REMARKS
PORTLAND       PTSUNNY   83  70  64 S12       29.79F                  
SANFORD        PTSUNNY   84  71  65 SW7       29.81F                  
BAR HARBOR     FAIR      78  70  76 SW13      29.80F                  
WISCASSET      PTSUNNY   81  68  64 S7        29.80F                  
ROCKLAND       FAIR      79  69  71 S8        29.79F                  
FRYEBURG       FAIR      83  68  60 VRB3      29.80F                  
LEWISTONAUBURN PTSUNNY   82  71  69 SW10      29.79F                  
AUGUSTA        FAIR      82  70  66 VRB3      29.79F                  
WATERVILLE     FAIR      80  70  71 VRB5      29.77F                  
BANGOR         PTSUNNY   82  70  66 SW8       29.78F                  
GREENVILLE       N/A     75  66  73 S8        29.78F                  
MILLINOCKET    FAIR      78  67  68 SW8G18    29.78F                  
HOULTON        PTSUNNY   75  67  76 SW6       29.75F                  
PRESQUE ISLE   PTSUNNY   77  64  64 SW10      29.75S                  
FRENCHVILLE    PTSUNNY   75  64  68 SW12      29.72S                  
CARIBOU        CLOUDY    75  64  68 SW12G20   29.73F                  
$$

NHZ002-005-008-009-011-012-014-221800-
NEW HAMPSHIRE
  
CITY           SKY/WX    TMP DP  RH WIND       PRES   REMARKS
ROCHESTER      PTSUNNY   84  69  60 CALM      29.80F                  
NASHUA         PTSUNNY   85  73  67 W6        29.82F HX  91           
MANCHESTER     RAIN      83  72  69 W8        29.80F                  
CONCORD        FAIR      84  68  58 W9        29.82F                  
LACONIA        FAIR      81  70  69 SW9       29.83F                  
PLYMOUTH       PTSUNNY   79  69  71 CALM      29.82S                  
BERLIN         NOT AVBL                                               
WHITEFIELD     PTSUNNY   78  65  63 SW9       29.82F                  
JAFFREY        FAIR      82  65  56 W9        29.88F                  
KEENE          PTSUNNY   83  66  56 W10       29.84F                  
LEBANON        PTSUNNY   84  63  49 SW8       29.82F                  
MT WASHINGTON  FOG       54  54 100 W26         N/A  VSB 0            
$$

VTZ005-007-008-221800-
VERMONT
  
CITY           SKY/WX    TMP DP  RH WIND       PRES   REMARKS
ST JOHNSBURY     N/A     79  68  69 MISG      29.78F                  
MONTPELIER     PTSUNNY   75  66  73 NW7       29.88R                  
BURLINGTON     PTSUNNY   82  54  37 W12       29.82R                  
$$

MAZ007-012-024-CTZ003-RIZ002-NYZ038-NYZ072-221800-
SOUTHERN NEW ENGLAND AND NY
  
CITY           SKY/WX    TMP DP  RH WIND       PRES   REMARKS
BOSTON         FAIR      90  70  51 W9        29.80F HX  95           
WORCESTER      FAIR      81  70  69 NW12      29.88S                  
NANTUCKET      FAIR      79  76  90 SW13      29.85F                  
PROVIDENCE     LGT RAIN  82  76  81 SE5       29.83F                  
HARTFORD       PTSUNNY   83  70  64 N6        29.85S                  
ALBANY         PTSUNNY   81  66  60 NW7       29.87F                  
NEW YORK CITY  FAIR      89  64  43 W8        29.86F HX  90           
$$

ANZ081-ANZ082-ANZ150-NHZ014-MEZ023>029-221800-
COASTAL MARINE OBSERVATIONS
  
STATION/POSITION TIME  TEMP    WIND        PRES    WAVE
                       AIR SEA DIR/SP/G            HT/PER
                 (UTC) (F)     (DEG/KT/KT) (MB)    (FT/S)
MATINICUS ROCK   1650   62                 1009.2F
ISLE OF SHOALS   1600   75     160/  8/  9 1009.2F
JEFFREYS LEDGE   1638      70                N/A     2/12
CASHES LEDGE BUO 1650   66 65  200/  6/  6 1010.2F   3/ 6
GEORGES BANK BUO 1650   72 68  210/ 17/ 21 1011.6F   5/ 7
$$

.............KEY..............
   WCI - WIND CHILL
   TC  - TEMPERATURE IN CELSIUS
   VSB - VISIBILITY IN MILES
   HX  - HEAT INDEX
   FAIR- INDICATES FEW OR NO CLOUDS BELOW 12,000 FT, WITH NO 
         SIGNIFICANT WEATHER AND/OR OBSTRUCTIONS TO VISIBILITY.